Location: Observatoire
(46.1952°N, 5.3391°E)
Time: 07:03:59
(UTC+01:00)

Explorer 7 - Pass Details

Date: 22 February 2026
Orbit: 430 x 541 km, 50.2° (Epoch: 9 March)

Event Time Altitude Azimuth Distance (km) Brightness Sun altitude
Rises 17:24:02 0° 287° (WNW) 2,457 11.0 7.5°
Reaches altitude 10° 17:26:12 10° 293° (WNW) 1,601 10.0 7.1°
Maximum altitude 17:29:41 46° 8° (N) 641 7.1 6.6°
Drops below altitude 10° 17:33:19 10° 83° (E) 1,663 8.7 6.0°
Sets 17:35:36 0° 90° (E) 2,566 9.6 5.6°
